Time,TemperatureF,DewpointF,PressureIn,WindDirection,WindDirectionDegrees,WindSpeedMPH,WindSpeedGustMPH,Humidity,HourlyPrecipIn,Conditions,Clouds,dailyrainin,SolarRadiationWatts/m^2,SoftwareType,DateUTC
2013-01-27 00:00:00,8.0,5.0,-100.00,SSW,202,0.0,-999.0,87,-99.99,,,-99.99,0.000000,,2013-01-27 05:00:00,
2013-01-27 00:42:00,8.0,5.0,-100.00,SSW,202,0.0,-999.0,87,-99.99,,,-99.99,0.000000,,2013-01-27 05:42:00,
2013-01-27 00:52:00,8.0,5.0,-100.00,SSW,202,0.0,-999.0,87,-99.99,,,-99.99,0.000000,,2013-01-27 05:52:00,
2013-01-27 03:00:00,7.0,4.0,-100.00,SW,225,0.0,-999.0,87,-99.99,,,-99.99,0.000000,,2013-01-27 08:00:00,
2013-01-27 03:42:00,7.0,4.0,-100.00,SW,225,0.0,-999.0,87,-99.99,,,-99.99,0.000000,,2013-01-27 08:42:00,
2013-01-27 03:52:00,7.0,4.0,-100.00,SW,225,0.0,-999.0,87,-99.99,,,-99.99,0.000000,,2013-01-27 08:52:00,
2013-01-27 06:00:00,5.0,2.0,-100.00,South,180,0.0,-999.0,87,-99.99,,,-99.99,0.000000,,2013-01-27 11:00:00,
2013-01-27 06:42:00,5.0,2.0,-100.00,South,180,0.0,-999.0,87,-99.99,,,-99.99,0.000000,,2013-01-27 11:42:00,
2013-01-27 06:52:00,5.0,2.0,-100.00,South,180,0.0,-999.0,87,-99.99,,,-99.99,0.000000,,2013-01-27 11:52:00,
2013-01-27 09:00:00,9.0,6.0,-100.00,South,180,1.0,-999.0,88,-99.99,,,-99.99,33.639999,,2013-01-27 14:00:00,
2013-01-27 09:43:00,9.0,6.0,-100.00,South,180,1.0,-999.0,88,-99.99,,,-99.99,33.639999,,2013-01-27 14:43:00,
2013-01-27 09:53:00,9.0,6.0,-100.00,South,180,1.0,-999.0,88,-99.99,,,-99.99,33.639999,,2013-01-27 14:53:00,
2013-01-27 12:00:00,24.0,11.0,-100.00,SSW,202,6.0,-999.0,57,-99.99,,,-99.99,245.919998,,2013-01-27 17:00:00,
2013-01-27 12:42:00,24.0,11.0,-100.00,SSW,202,6.0,-999.0,57,-99.99,,,-99.99,245.919998,,2013-01-27 17:42:00,
2013-01-27 12:53:00,24.0,11.0,-100.00,SSW,202,6.0,-999.0,57,-99.99,,,-99.99,245.919998,,2013-01-27 17:53:00,
2013-01-27 15:00:00,26.0,12.0,-100.00,SSE,157,1.0,-999.0,55,-99.99,,,-99.99,172.839996,,2013-01-27 20:00:00,
2013-01-27 15:42:00,26.0,12.0,-100.00,SSE,157,1.0,-999.0,55,-99.99,,,-99.99,172.839996,,2013-01-27 20:42:00,
2013-01-27 15:52:00,26.0,12.0,-100.00,SSE,157,1.0,-999.0,55,-99.99,,,-99.99,172.839996,,2013-01-27 20:52:00,
2013-01-27 18:00:00,24.0,15.0,-100.00,SE,135,2.0,-999.0,67,-99.99,,,-99.99,3.480000,,2013-01-27 23:00:00,
2013-01-27 18:32:00,24.0,15.0,-100.00,SE,135,2.0,-999.0,67,-99.99,,,-99.99,3.480000,,2013-01-27 23:32:00,
2013-01-27 18:42:00,24.0,15.0,-100.00,SE,135,2.0,-999.0,67,-99.99,,,-99.99,3.480000,,2013-01-27 23:42:00,
2013-01-27 18:53:00,24.0,15.0,-100.00,SE,135,2.0,-999.0,67,-99.99,,,-99.99,3.480000,,2013-01-27 23:53:00,
2013-01-27 21:00:00,22.0,20.0,-100.00,ESE,112,3.0,-999.0,92,-99.99,,,-99.99,0.000000,,2013-01-28 02:00:00,
2013-01-27 21:42:00,22.0,20.0,-100.00,ESE,112,3.0,-999.0,92,-99.99,,,-99.99,0.000000,,2013-01-28 02:42:00,
2013-01-27 21:53:00,22.0,20.0,-100.00,ESE,112,3.0,-999.0,92,-99.99,,,-99.99,0.000000,,2013-01-28 02:53:00,